Regional Weather Roundup
Issued by NWS Little Rock, AR

Home | Current Version | Previous Version | Graphics & Text | Print | Product List | Glossary On
Versions: 1 2 3 4 5 6 7 8 9 10 11 12 13 14 15 16 17 18 19 20 21 22 23 24 25 26 27 28 29 30 31 32 33 34 35 36 37 38 39 40 41 42 43 44 45 46 47 48 49 50
000
ASUS44 KLZK 040705
RWRLZK

WEATHER ROUNDUP FOR ARKANSAS
NATIONAL WEATHER SERVICE LITTLE ROCK AR
200 AM CDT FRI SEP 04 2015

NOTE: "FAIR" INDICATES FEW OR NO CLOUDS BELOW 12,000 FEET WITH NO
SIGNIFICANT WEATHER AND/OR OBSTRUCTIONS TO VISIBILITY.

ARZ001-003-010-029-040800-
NORTHWEST ARKANSAS

CITY           SKY/WX    TMP DP  RH WIND       PRES   REMARKS
FAYETTEVILLE   CLEAR     67  67 100 CALM      29.99S FOG
FORT SMITH     CLEAR     75  69  81 NE3       29.93S
HARRISON       CLEAR     70  68  93 SE3       30.00S
BENTONVILLE    CLEAR     72  64  78 SE3       29.99S
ROGERS         CLEAR     72  69  90 SE7       30.00R
SILOAM SPGS    CLEAR     72  63  73 E3        29.97R
HIGHFILL       CLEAR     73  68  84 CALM      29.98S
$$

ARZ004-005-016-040800-
NORTH CENTRAL ARKANSAS

CITY           SKY/WX    TMP DP  RH WIND       PRES   REMARKS
BATESVILLE     CLEAR     72  70  94 CALM      29.97S
FLIPPIN        CLEAR     72  64  78 CALM      29.96F
MTN HOME       CLEAR     72  68  87 SE3       29.98S
$$

ARZ040-041-040800-
WEST CENTRAL ARKANSAS

CITY           SKY/WX    TMP DP  RH WIND       PRES   REMARKS
MENA           CLEAR     68  66  94 CALM      29.97S
MOUNT IDA      CLEAR     70  67  90 CALM      29.94S FOG
$$

ARZ009-017-025-026-028-040800-
NORTHEAST ARKANSAS

CITY           SKY/WX    TMP DP  RH WIND       PRES   REMARKS
JONESBORO      CLEAR     69  69 100 CALM      29.96S
NEWPORT        CLEAR     75  72  91 CALM      29.96S
WALNUT RIDGE   CLEAR     72  66  83 CALM      29.96S
BLYTHEVILLE    CLEAR     72  72 100 NW3       29.96S
$$

ARZ022-023-033-042-044-040800-
CENTRAL ARKANSAS

CITY           SKY/WX    TMP DP  RH WIND       PRES   REMARKS
LITTLE ROCK    CLEAR     76  70  82 CALM      29.94F
N LITTLE ROCK    N/A     77  70  80 SE3       29.94F
JACKSONVILLE   CLEAR     71  68  90 CALM      29.94S
SEARCY         CLEAR     72  70  93 CALM      29.97S
HOT SPRINGS    CLEAR     75  68  78 CALM      29.95S
RUSSELLVILLE   CLEAR     73  69  87 CALM      29.94S
$$

ARZ036-040800-
EAST ARKANSAS

CITY           SKY/WX    TMP DP  RH WIND       PRES   REMARKS
WEST MEMPHIS   CLEAR     73  73 100 CALM      29.94S
$$

ARZ050-053-066-070-073-040800-
SOUTHWEST ARKANSAS

CITY           SKY/WX    TMP DP  RH WIND       PRES   REMARKS
ARKADELPHIA    FAIR      71  71 100 CALM      29.93S
CAMDEN         CLEAR     72  68  88 CALM      29.92S FOG
TEXARKANA      CLEAR     77  69  76 CALM      29.92S
EL DORADO      CLEAR     72  69  90 CALM      29.92S
DE QUEEN       CLEAR     71  69  93 CALM      29.91S
$$

ARZ056-057-069-040800-
SOUTHEAST ARKANSAS

CITY           SKY/WX    TMP DP  RH WIND       PRES   REMARKS
PINE BLUFF     CLEAR     74  70  87 CALM      29.94S
STUTTGART      CLEAR     79  66  65 E3        29.95S
MONTICELLO     PTCLDY    75  72  90 CALM      29.93S

$$





USA.gov is the U.S. government's official web portal to all federal, state and local government web resources and services.